Epoch,demod_status_bits,ebno,lock_status,signal_level,viterbi_ber
1664701799,,,0xc0504d,-39.4,
1664701800,C;S;V;F,11.7,0x00c000,-39.1,7.10e-6
1664701801,C;S;V;F,11.9,0x00c000,,5.14e-6
1664701802,C;S;V;F,11.9,0x00c000,-39.6,3.93e-6
1664701803,C;S;V;F,12.0,0x00c000,-39.4,5.29e-6
1664701804,C;S;V;F,12.3,0x00c000,-39.2,4.23e-6
1664701805,C;S;V;F,12.6,0x00c000,-38.8,3.02e-6
1664701806,C;S;V;F,11.8,0x00c000,-39.6,1.81e-6
1664701807,C;S;V;F,11.8,0x00c000,-39.3,4.38e-6
1664701808,C;S;V;F,12.2,0x00c000,-39.3,1.96e-6
1664701809,C;S;V;F,12.3,0x00c000,-39.4,
1664701810,,12.1,0x00c000,-39.0,3.17e-6
1664701811,C;S;V;F,12.3,0x00c000,-39.1,2.57e-6
1664701812,C;S;V;F,12.1,0x00c000,-39.3,1.51e-6
1664701813,C;S;V;F,,0x00c000,-38.9,2.11e-6
1664701814,C;S;V;F,12.2,0x00c000,-38.8,2.57e-6
1664701815,C;S;V;F,12.5,0x00c000,,1.36e-6
1664701816,C;S;V;F,12.7,0x00c000,-38.8,7.57e-7
1664701817,C;S;V;F,12.6,0x00c000,-39.0,7.57e-7
1664701818,C;S;V;F,12.6,0x00c000,-39.0,9.09e-7
1664701819,C;S;V;F,12.6,0x00c000,-39.0,9.09e-7
1664701820,C;S;V;F,12.6,0x00c000,-38.7,7.57e-7
1664701821,C;S;V;F,13.0,0x00c000,-39.0,
1664701822,,12.5,0x00c000,-39.0,3.03e-7
1664701823,C;S;V;F,12.7,0x00c000,-38.9,6.06e-7
1664701824,C;S;V;F,,,,6.06e-7
1664701825,C;S;V;F,12.6,0x00c000,-38.8,7.57e-7
1664701826,C;S;V;F,12.8,0x00c000,-38.8,7.57e-7
1664701827,C;S;V;F,12.7,0x00c000,-38.9,9.09e-7
1664701828,C;S;V;F,12.9,0x00c000,-38.8,9.09e-7
1664701829,C;S;V;F,12.7,0x00c000,-38.9,4.54e-7
1664701830,C;S;V;F,12.9,0x00c000,-38.7,
1664701831,,12.8,0x00c000,-38.6,4.54e-7
1664701832,C;S;V;F,13.1,0x00c000,-38.4,4.54e-7
1664701833,C;S;V;F,13.1,0x00c000,-38.4,3.03e-7
1664701834,C;S;V;F,,0x00c000,-38.9,0.00e-0
1664701835,C;S;V;F,12.9,0x00c000,-38.8,0.00e-0
1664701836,C;S;V;F,12.9,0x00c000,,3.03e-7
1664701837,C;S;V;F,13.0,0x00c000,-38.7,3.03e-7
1664701838,C;S;V;F,12.6,0x00c000,-39.1,4.54e-7
1664701839,C;S;V;F,12.7,0x00c000,-38.9,4.54e-7
1664701840,C;S;V;F,12.8,0x00c000,-38.8,3.03e-7
1664701841,C;S;V;F,12.7,0x00c000,-38.8,1.51e-7
1664701842,C;S;V;F,13.0,0x00c000,-38.9,4.54e-7
1664701843,C;S;V;F,12.9,0x00c000,-38.8,4.54e-7
1664701844,C;S;V;F,12.8,0x00c000,-39.1,4.54e-7
1664701845,C;S;V;F,12.7,0x00c000,-38.9,4.54e-7
1664701846,,12.8,0x00c000,-38.9,
1664701847,C;S;V;F,13.1,0x00c000,-38.8,4.54e-7
1664701848,C;S;V;F,13.0,0x00c000,-38.9,3.03e-7
1664701849,C;S;V;F,,0x00c000,-38.9,1.51e-7
1664701850,C;S;V;F,12.8,0x00c000,-38.8,3.03e-7
1664701851,C;S;V;F,12.8,0x00c000,,1.51e-7
1664701853,C;S;V;F,13.1,0x00c000,-38.7,
1664701854,,13.1,0x00c000,-38.7,0.00e-0
1664701855,C;S;V;F,13.2,0x00c000,-38.4,0.00e-0
1664701856,C;S;V;F,13.5,0x00c000,-38.6,0.00e-0
1664701857,C;S;V;F,,0x00c000,-38.4,0.00e-0
1664701858,C;S;V;F,13.3,0x00c000,-38.4,0.00e-0
1664701859,C;S;V;F,13.2,0x00c000,,0.00e-0
1664701860,C;S;V;F,13.8,0x00c000,-38.4,0.00e-0
1664701861,C;S;V;F,13.5,0x00c000,-38.4,0.00e-0
1664701862,C;S;V;F,13.6,0x00c000,-38.3,0.00e-0
1664701863,C;S;V;F,13.4,0x00c000,-38.3,0.00e-0
1664701864,C;S;V;F,13.7,0x00c000,-38.1,0.00e-0
1664701865,C;S;V;F,13.7,0x00c000,-38.4,0.00e-0
1664701866,C;S;V;F,13.6,0x00c000,-38.3,0.00e-0
1664701867,C;S;V;F,13.9,0x00c000,-38.2,0.00e-0
1664701868,C;S;V;F,13.8,0x00c000,-38.0,0.00e-0
1664701869,,13.9,0x00c000,-38.1,
1664701870,C;S;V;F,13.7,0x00c000,-38.4,0.00e-0
1664701871,C;S;V;F,13.7,0x00c000,-38.2,0.00e-0
1664701872,C;S;V;F,,0x00c000,-38.0,0.00e-0
1664701873,C;S;V;F,13.9,0x00c000,-38.0,0.00e-0
1664701874,C;S;V;F,13.9,0x00c000,-38.0,0.00e-0
1664701875,C;S;V;F,14.0,0x00c000,,0.00e-0
1664701876,C;S;V;F,14.0,0x00c000,-38.0,0.00e-0
1664701877,C;S;V;F,13.9,0x00c000,-38.0,0.00e-0
1664701878,C;S;V;F,14.0,0x00c000,-37.9,0.00e-0
1664701879,C;S;V;F,14.2,0x00c000,-37.9,0.00e-0
1664701880,C;S;V;F,14.0,0x00c000,-37.8,0.00e-0
1664701881,C;S;V;F,14.2,0x00c000,-37.4,0.00e-0
1664701882,C;S;V;F,14.3,0x00c000,-37.4,0.00e-0
1664701883,C;S;V;F,14.6,0x00c000,-37.5,0.00e-0
1664701884,C;S;V;F,14.1,0x00c000,-37.6,
1664701885,,14.5,0x00c000,-37.3,0.00e-0
1664701886,C;S;V;F,14.7,0x00c000,-37.2,0.00e-0
1664701887,C;S;V;F,,0x00c000,-37.2,0.00e-0
1664701888,C;S;V;F,14.7,0x00c000,,0.00e-0
1664701889,C;S;V;F,14.6,0x00c000,-37.1,0.00e-0
1664701890,C;S;V;F,14.8,0x00c000,-37.0,0.00e-0
1664701891,C;S;V;F,14.7,0x00c000,-37.2,0.00e-0
1664701892,C;S;V;F,14.8,0x00c000,-37.0,0.00e-0
1664701893,C;S;V;F,14.7,0x00c000,-37.1,0.00e-0
1664701894,C;S;V;F,14.8,0x00c000,-37.1,0.00e-0
1664701895,C;S;V;F,14.8,0x00c000,-37.1,0.00e-0
1664701896,C;S;V;F,14.8,0x00c000,-37.1,0.00e-0
1664701897,C;S;V;F,14.7,0x00c000,-37.2,
1664701898,,14.8,0x00c000,-37.1,0.00e-0
1664701899,C;S;V;F,14.8,0x00c000,-37.1,0.00e-0
1664701900,C;S;V;F,,0x00c000,-37.2,0.00e-0
1664701901,C;S;V;F,14.8,0x00c000,-37.2,0.00e-0
1664701902,C;S;V;F,14.7,0x00c000,,0.00e-0
1664701903,C;S;V;F,14.8,0x00c000,-37.2,0.00e-0
1664701904,C;S;V;F,14.6,0x00c000,-37.1,0.00e-0
1664701905,C;S;V;F,14.6,0x00c000,-37.0,0.00e-0
1664701906,C;S;V;F,14.7,0x00c000,-37.1,0.00e-0
1664701907,C;S;V;F,14.7,0x00c000,-37.0,0.00e-0
1664701908,C;S;V;F,14.5,0x00c000,-37.4,0.00e-0
1664701909,C;S;V;F,14.6,0x00c000,-37.5,0.00e-0
1664701910,C;S;V;F,14.8,0x00c000,-37.3,0.00e-0
1664701911,C;S;V;F,14.9,0x00c000,-37.2,
1664701912,,14.9,0x00c000,-37.2,0.00e-0
1664701913,C;S;V;F,14.8,0x00c000,-37.1,0.00e-0
1664701914,C;S;V;F,,,,0.00e-0
1664701916,C;S;V;F,14.6,0x00c000,-37.3,0.00e-0
1664701917,C;S;V;F,14.5,0x00c000,-37.5,0.00e-0
1664701918,C;S;V;F,14.2,0x00c000,-37.6,0.00e-0
1664701919,C;S;V;F,14.5,0x00c000,-37.6,
1664701920,,14.5,0x00c000,-37.5,0.00e-0
1664701921,C;S;V;F,14.5,0x00c000,-37.6,0.00e-0
1664701922,C;S;V;F,14.6,0x00c000,-37.5,0.00e-0
1664701923,C;S;V;F,14.5,0x00c000,-37.7,0.00e-0
1664701924,C;S;V;F,,0x00c000,-37.4,0.00e-0
1664701925,C;S;V;F,14.5,0x00c000,-37.5,0.00e-0
1664701926,C;S;V;F,14.5,0x00c000,,0.00e-0
1664701927,C;S;V;F,14.5,0x00c000,-37.2,0.00e-0
1664701928,C;S;V;F,14.6,0x00c000,-37.3,0.00e-0
1664701929,C;S;V;F,14.7,0x00c000,-37.6,0.00e-0
1664701930,C;S;V;F,14.7,0x00c000,-37.4,0.00e-0
1664701931,C;S;V;F,14.9,0x00c000,-37.4,0.00e-0
1664701932,C;S;V;F,14.6,0x00c000,-37.5,
1664701933,,14.5,0x00c000,-37.6,0.00e-0
1664701934,C;S;V;F,14.6,0x00c000,-37.6,0.00e-0
1664701935,C;S;V;F,14.4,0x00c000,-37.5,0.00e-0
1664701936,C;S;V;F,,0x00c000,-37.9,0.00e-0
1664701937,C;S;V;F,14.4,0x00c000,-37.9,0.00e-0
1664701938,C;S;V;F,14.3,0x00c000,,0.00e-0
1664701939,C;S;V;F,14.5,0x00c000,-37.9,0.00e-0
1664701940,C;S;V;F,14.1,0x00c000,-37.9,0.00e-0
1664701941,C;S;V;F,14.2,0x00c000,-37.8,0.00e-0
1664701942,C;S;V;F,14.1,0x00c000,-37.9,0.00e-0
1664701943,C;S;V;F,14.3,0x00c000,-37.7,
1664701944,,,,,0.00e-0
1664701947,C;S;V;F,14.4,0x00c000,-37.6,0.00e-0
1664701948,C;S;V;F,14.4,0x00c000,-37.6,0.00e-0
1664701949,C;S;V;F,14.3,0x00c000,-37.8,0.00e-0
1664701950,C;S;V;F,14.4,0x00c000,-37.7,
1664701951,C;S;V;F,14.4,0x00c000,-37.8,0.00e-0
1664701952,,14.5,0x00c000,-37.5,0.00e-0
1664701953,C;S;V;F,14.6,0x00c000,-37.4,0.00e-0
1664701954,C;S;V;F,,0x00c000,-37.2,0.00e-0
1664701955,C;S;V;F,14.7,0x00c000,,0.00e-0
1664701956,C;S;V;F,15.1,0x00c000,-37.2,0.00e-0
1664701957,C;S;V;F,15.2,0x00c000,-37.0,0.00e-0
1664701958,C;S;V;F,15.4,0x00c000,-36.8,0.00e-0
1664701959,C;S;V;F,15.2,0x00c000,-36.8,0.00e-0
1664701960,C;S;V;F,15.3,0x00c000,-36.8,0.00e-0
1664701961,C;S;V;F,15.4,0x00c000,-36.4,0.00e-0
1664701962,C;S;V;F,15.6,0x00c000,-36.4,0.00e-0
1664701963,,15.6,0x00c000,-36.3,
1664701964,C;S;V;F,15.7,0x00c000,-36.4,0.00e-0
1664701965,C;S;V;F,15.5,0x00c000,-36.4,0.00e-0
1664701966,C;S;V;F,15.8,0x00c000,-36.3,0.00e-0
1664701967,C;S;V;F,15.8,0x00c000,-36.3,0.00e-0
1664701968,C;S;V;F,,0x00c000,-36.1,0.00e-0
1664701969,C;S;V;F,16.0,0x00c000,-36.2,0.00e-0
1664701970,C;S;V;F,16.1,0x00c000,,0.00e-0
1664701971,C;S;V;F,16.1,0x00c000,-35.9,0.00e-0
1664701972,C;S;V;F,16.2,0x00c000,-35.5,0.00e-0
1664701973,C;S;V;F,16.5,0x00c000,-35.2,0.00e-0
1664701974,C;S;V;F,16.6,0x00c000,-35.3,0.00e-0
1664701975,,16.6,0x00c000,-35.2,
1664701976,C;S;V;F,16.7,0x00c000,-35.2,0.00e-0
1664701977,C;S;V;F,,0x00c000,,0.00e-0
1664701978,,,0x00c000,-35.1,
1664701979,C;S;V;F,16.9,0x00c000,,0.00e-0
1664701980,C;S;V;F,17.0,0x00c000,-34.9,0.00e-0
1664701981,C;S;V;F,16.9,0x00c000,-34.7,0.00e-0
1664701982,C;S;V;F,17.1,0x00c000,-34.7,
1664701983,C;S;V;F,17.1,0x00c000,-34.6,0.00e-0
1664701984,,17.1,0x00c000,-34.6,0.00e-0
1664701985,C;S;V;F,17.2,0x00c000,-34.5,0.00e-0
1664701986,C;S;V;F,17.2,0x00c000,-34.5,0.00e-0
1664701987,C;S;V;F,17.3,0x00c000,-34.7,0.00e-0
1664701988,C;S;V;F,,0x00c000,-34.5,0.00e-0
1664701989,C;S;V;F,17.3,0x00c000,,0.00e-0
1664701990,C;S;V;F,17.3,0x00c000,-34.3,0.00e-0
1664701991,C;S;V;F,17.4,0x00c000,-34.4,0.00e-0
1664701992,C;S;V;F,17.5,0x00c000,-34.3,0.00e-0
1664701993,C;S;V;F,17.1,0x00c000,-34.2,0.00e-0
1664701994,C;S;V;F,17.6,0x00c000,-34.3,0.00e-0
1664701995,C;S;V;F,17.7,0x00c000,-34.3,0.00e-0
1664701996,C;S;V;F,17.1,0x00c000,-34.4,
1664701997,,17.4,0x00c000,-34.4,0.00e-0
1664701998,C;S;V;F,17.5,0x00c000,-34.4,0.00e-0
1664701999,C;S;V;F,,0x00c000,-34.6,0.00e-0
1664702000,C;S;V;F,17.3,0x00c000,-34.7,0.00e-0
1664702001,C;S;V;F,17.2,0x00c000,,0.00e-0
1664702002,C;S;V;F,17.1,0x00c000,-34.7,0.00e-0
1664702003,C;S;V;F,17.1,0x00c000,-34.8,0.00e-0
1664702004,C;S;V;F,16.9,0x00c000,-34.8,0.00e-0
1664702005,C;S;V;F,16.9,0x00c000,-34.8,0.00e-0
1664702006,C;S;V;F,17.1,0x00c000,-34.9,0.00e-0
1664702007,C;S;V;F,16.9,0x00c000,-35.0,0.00e-0
1664702008,C;S;V;F,16.9,0x00c000,-34.9,0.00e-0
1664702009,C;S;V;F,16.8,0x00c000,-35.1,0.00e-0
1664702010,C;S;V;F,16.6,0x00c000,-35.1,0.00e-0
1664702011,C;S;V;F,16.9,0x00c000,-35.1,0.00e-0
1664702012,,17.0,0x00c000,-34.8,
1664702013,C;S;V;F,16.6,0x00c000,-34.8,0.00e-0
1664702014,C;S;V;F,,0x00c000,-34.7,0.00e-0
1664702015,C;S;V;F,17.1,0x00c000,-34.3,0.00e-0
1664702016,C;S;V;F,17.3,0x00c000,,0.00e-0
1664702017,C;S;V;F,17.2,0x00c000,-34.4,0.00e-0
1664702018,C;S;V;F,17.4,0x00c000,-34.2,0.00e-0
1664702019,C;S;V;F,17.6,0x00c000,-34.2,0.00e-0
1664702020,C;S;V;F,17.5,0x00c000,-34.2,0.00e-0
1664702021,C;S;V;F,17.7,0x00c000,-34.2,0.00e-0
1664702022,C;S;V;F,17.3,0x00c000,-33.9,0.00e-0
1664702023,C;S;V;F,17.5,0x00c000,-33.9,0.00e-0
1664702024,C;S;V;F,17.5,0x00c000,-33.8,0.00e-0
1664702025,C;S;V;F,17.6,0x00c000,-33.7,0.00e-0
1664702026,C;S;V;F,17.6,0x00c000,-33.8,
1664702027,,17.5,0x00c000,-33.9,0.00e-0
1664702028,C;S;V;F,17.4,0x00c000,-34.0,0.00e-0
1664702029,C;S;V;F,17.6,0x00c000,-34.0,0.00e-0
1664702030,C;S;V;F,,0x00c000,-33.9,0.00e-0
1664702031,C;S;V;F,17.6,0x00c000,-34.0,0.00e-0
1664702032,C;S;V;F,17.6,0x00c000,,0.00e-0
1664702033,C;S;V;F,17.7,0x00c000,-33.8,0.00e-0
1664702034,C;S;V;F,17.9,0x00c000,-33.6,0.00e-0
1664702035,C;S;V;F,17.9,0x00c000,-33.7,0.00e-0
1664702036,C;S;V;F,17.7,0x00c000,-33.8,0.00e-0
1664702037,C;S;V;F,18.0,0x00c000,-33.8,0.00e-0
1664702038,C;S;V;F,17.8,0x00c000,-33.8,0.00e-0
1664702039,C;S;V;F,18.0,0x00c000,-33.6,
1664702040,,,,,0.00e-0
1664702041,,17.8,0x00c000,-33.8,
1664702042,C;S;V;F,17.8,0x00c000,-33.9,0.00e-0
1664702043,C;S;V;F,17.8,0x00c000,-34.0,0.00e-0
1664702044,C;S;V;F,,0x00c000,-34.3,0.00e-0
1664702045,C;S;V;F,17.7,0x00c000,,0.00e-0
1664702046,C;S;V;F,17.4,0x00c000,-34.1,0.00e-0
1664702047,C;S;V;F,17.3,0x00c000,-34.3,0.00e-0
1664702048,C;S;V;F,17.4,0x00c000,-34.4,0.00e-0
1664702049,C;S;V;F,17.4,0x00c000,-34.8,0.00e-0
1664702050,C;S;V;F,17.4,0x00c000,-34.5,0.00e-0
1664702051,C;S;V;F,17.4,0x00c000,-34.4,0.00e-0
1664702052,C;S;V;F,17.2,0x00c000,-34.4,0.00e-0
1664702053,,17.4,0x00c000,-34.3,
1664702054,C;S;V;F,17.4,0x00c000,-34.4,0.00e-0
1664702055,C;S;V;F,17.3,0x00c000,-34.7,0.00e-0
1664702056,C;S;V;F,,0x00c000,-34.7,0.00e-0
1664702057,C;S;V;F,17.0,0x00c000,,0.00e-0
1664702058,C;S;V;F,16.9,0x00c000,-34.8,0.00e-0
1664702059,C;S;V;F,17.0,0x00c000,-34.8,0.00e-0
1664702060,C;S;V;F,17.0,0x00c000,-34.9,0.00e-0
1664702061,C;S;V;F,17.1,0x00c000,-35.0,0.00e-0
1664702062,C;S;V;F,16.7,0x00c000,-35.2,0.00e-0
1664702063,C;S;V;F,16.8,0x00c000,-35.3,0.00e-0
1664702064,C;S;V;F,16.6,0x00c000,-35.6,0.00e-0
1664702065,C;S;V;F,16.6,0x00c000,-35.6,0.00e-0
1664702066,,16.5,0x00c000,-35.6,
1664702067,C;S;V;F,16.3,0x00c000,-35.7,0.00e-0
1664702068,C;S;V;F,16.4,0x00c000,-35.7,0.00e-0
1664702069,C;S;V;F,,0x00c000,-35.6,0.00e-0
1664702070,C;S;V;F,16.6,0x00c000,,0.00e-0
1664702071,C;S;V;F,16.4,0x00c000,-35.6,0.00e-0
1664702072,C;S;V;F,16.4,0x00c000,-35.6,0.00e-0
1664702073,C;S;V;F,16.4,0x00c000,-35.9,0.00e-0
1664702074,C;S;V;F,16.3,0x00c000,-35.7,0.00e-0
1664702075,C;S;V;F,16.5,0x00c000,-35.6,0.00e-0
1664702076,C;S;V;F,16.2,0x00c000,-35.9,0.00e-0
1664702077,C;S;V;F,16.1,0x00c000,-35.9,
1664702078,,16.3,0x00c000,-36.1,0.00e-0
1664702079,C;S;V;F,15.9,0x00c000,-36.2,0.00e-0
1664702080,C;S;V;F,16.0,0x00c000,-36.4,0.00e-0
1664702081,C;S;V;F,16.0,0x00c000,-36.3,0.00e-0
1664702082,C;S;V;F,,0x00c000,-36.2,0.00e-0
1664702083,C;S;V;F,15.8,0x00c000,-36.3,0.00e-0
1664702084,C;S;V;F,15.9,0x00c000,,0.00e-0
1664702085,C;S;V;F,16.0,0x00c000,-36.3,0.00e-0
1664702086,C;S;V;F,16.1,0x00c000,-36.1,0.00e-0
1664702087,C;S;V;F,16.1,0x00c000,-35.9,0.00e-0
1664702088,C;S;V;F,16.2,0x00c000,-35.8,0.00e-0
1664702089,C;S;V;F,16.2,0x00c000,-35.8,0.00e-0
1664702090,C;S;V;F,16.1,0x00c000,-35.9,0.00e-0
1664702091,C;S;V;F,16.2,0x00c000,-35.9,
1664702092,,16.2,0x00c000,-36.0,0.00e-0
1664702093,C;S;V;F,16.3,0x00c000,-35.8,0.00e-0
1664702094,C;S;V;F,16.1,0x00c000,-35.9,0.00e-0
1664702095,C;S;V;F,,0x00c000,-36.0,0.00e-0
1664702096,C;S;V;F,16.3,0x00c000,,0.00e-0
1664702097,C;S;V;F,16.1,0x00c000,-36.0,0.00e-0
1664702098,C;S;V;F,16.0,0x00c000,-36.0,0.00e-0
1664702099,C;S;V;F,16.0,0x00c000,-36.1,0.00e-0
1664702100,C;S;V;F,16.0,0x00c000,-36.3,0.00e-0
1664702101,C;S;V;F,15.7,0x00c000,-35.9,0.00e-0
1664702103,C;S;V;F,15.9,0x00c000,-36.0,0.00e-0
1664702104,C;S;V;F,16.2,0x00c000,-36.0,
1664702105,,16.3,0x00c000,-35.9,0.00e-0
1664702106,C;S;V;F,16.4,0x00c000,-35.8,0.00e-0
1664702107,C;S;V;F,,0x00c000,-35.9,0.00e-0
1664702108,C;S;V;F,16.2,0x00c000,,0.00e-0
1664702109,C;S;V;F,16.2,0x00c000,-36.0,0.00e-0
1664702110,C;S;V;F,15.9,0x00c000,-36.0,0.00e-0
1664702111,C;S;V;F,16.3,0x00c000,-35.6,0.00e-0
1664702112,C;S;V;F,16.3,0x00c000,-35.6,0.00e-0
1664702113,C;S;V;F,16.5,0x00c000,-35.6,0.00e-0
1664702114,C;S;V;F,16.5,0x00c000,-35.2,0.00e-0
1664702115,,16.9,0x00c000,-35.2,
1664702116,C;S;V;F,17.0,0x00c000,-35.1,0.00e-0
1664702117,C;S;V;F,17.0,0x00c000,-34.9,0.00e-0
1664702118,C;S;V;F,,0x00c000,-35.1,0.00e-0
1664702119,C;S;V;F,17.0,0x00c000,,0.00e-0
1664702120,C;S;V;F,16.9,0x00c000,-35.1,0.00e-0
1664702121,C;S;V;F,17.0,0x00c000,-35.0,0.00e-0
1664702122,C;S;V;F,16.8,0x00c000,-35.2,0.00e-0
1664702123,,16.9,0x00c000,-34.8,
1664702124,C;S;V;F,17.0,0x00c000,-34.7,0.00e-0
1664702125,C;S;V;F,,0x00c000,-34.8,0.00e-0
1664702126,C;S;V;F,17.1,0x00c000,-34.7,0.00e-0
1664702127,C;S;V;F,17.2,0x00c000,-34.7,0.00e-0
1664702128,C;S;V;F,17.2,0x00c000,,0.00e-0
1664702129,C;S;V;F,17.3,0x00c000,-34.7,0.00e-0
1664702130,C;S;V;F,17.2,0x00c000,-34.7,0.00e-0
1664702131,C;S;V;F,17.3,0x00c000,-34.5,0.00e-0
1664702132,C;S;V;F,17.4,0x00c000,-34.4,0.00e-0
1664702133,C;S;V;F,17.4,0x00c000,-34.4,0.00e-0
1664702134,C;S;V;F,17.6,0x00c000,-34.1,0.00e-0
1664702135,C;S;V;F,17.8,0x00c000,-34.0,0.00e-0
1664702136,C;S;V;F,17.5,0x00c000,-34.0,
1664702137,C;S;V;F,17.8,0x00c000,-34.0,0.00e-0
1664702138,,17.9,0x00c000,-33.9,0.00e-0
1664702139,C;S;V;F,17.7,0x00c000,-33.9,0.00e-0
1664702140,C;S;V;F,,0x00c000,-34.0,0.00e-0
1664702141,C;S;V;F,17.6,0x00c000,-33.9,0.00e-0
1664702142,C;S;V;F,17.7,0x00c000,,0.00e-0
1664702143,C;S;V;F,17.8,0x00c000,-33.8,0.00e-0
1664702144,C;S;V;F,18.0,0x00c000,-34.0,0.00e-0
1664702145,C;S;V;F,18.1,0x00c000,-33.8,0.00e-0
1664702146,C;S;V;F,17.6,0x00c000,-34.0,0.00e-0
1664702147,C;S;V;F,17.9,0x00c000,-33.8,0.00e-0
1664702148,C;S;V;F,17.8,0x00c000,-33.9,0.00e-0
1664702149,C;S;V;F,17.9,0x00c000,-33.9,0.00e-0
1664702150,C;S;V;F,17.7,0x00c000,-33.9,0.00e-0
1664702151,C;S;V;F,17.6,0x00c000,-33.9,0.00e-0
1664702152,C;S;V;F,17.5,0x00c000,-34.0,
1664702153,,17.8,0x00c000,-34.1,0.00e-0
1664702154,C;S;V;F,17.6,0x00c000,-34.0,0.00e-0
1664702155,C;S;V;F,17.8,0x00c000,-33.9,0.00e-0
1664702156,C;S;V;F,,0x00c000,-34.0,0.00e-0
1664702157,C;S;V;F,18.0,0x00c000,-34.0,0.00e-0
1664702158,C;S;V;F,17.7,0x00c000,-34.0,0.00e-0
1664702159,C;S;V;F,17.7,0x00c000,,0.00e-0
1664702160,C;S;V;F,17.5,0x00c000,-34.0,0.00e-0
1664702161,C;S;V;F,17.5,0x00c000,-34.4,0.00e-0
1664702162,C;S;V;F,17.4,0x00c000,-34.4,0.00e-0
1664702163,C;S;V;F,17.1,0x00c000,-34.6,0.00e-0
1664702164,C;S;V;F,17.1,0x00c000,-34.6,0.00e-0
1664702167,C;S;V;F,16.6,0x00c000,-34.9,0.00e-0
1664702168,C;S;V;F,16.6,0x00c000,-35.0,0.00e-0
1664702169,C;S;V;F,16.7,0x00c000,-35.1,0.00e-0
1664702170,C;S;V;F,16.6,0x00c000,-35.3,0.00e-0
1664702171,C;S;V;F,16.5,0x00c000,-35.3,
1664702172,,16.6,0x00c000,-35.3,0.00e-0
1664702173,C;S;V;F,16.9,0x00c000,-34.9,0.00e-0
1664702174,C;S;V;F,17.0,0x00c000,-35.2,0.00e-0
1664702175,C;S;V;F,,0x00c000,-35.2,0.00e-0
1664702176,C;S;V;F,16.8,0x00c000,-35.4,0.00e-0
1664702177,C;S;V;F,16.9,0x00c000,-35.9,0.00e-0
1664702178,C;S;V;F,16.5,0x00c000,,0.00e-0
1664702179,C;S;V;F,16.4,0x00c000,-36.0,0.00e-0
1664702180,C;S;V;F,16.2,0x00c000,-36.0,0.00e-0
1664702181,C;S;V;F,16.5,0x00c000,-35.8,0.00e-0
1664702182,C;S;V;F,16.2,0x00c000,-36.0,0.00e-0
1664702183,C;S;V;F,16.2,0x00c000,-35.8,0.00e-0
1664702184,C;S;V;F,16.6,0x00c000,-35.6,0.00e-0
1664702185,C;S;V;F,16.4,0x00c000,-35.5,0.00e-0
1664702186,C;S;V;F,16.8,0x00c000,-35.3,
1664702187,,16.6,0x00c000,-35.2,0.00e-0
1664702188,C;S;V;F,16.8,0x00c000,-35.1,0.00e-0
1664702189,C;S;V;F,16.5,0x00c000,-35.4,0.00e-0
1664702190,C;S;V;F,,0x00c000,-35.3,0.00e-0
1664702191,C;S;V;F,16.7,0x00c000,-35.4,0.00e-0
1664702192,C;S;V;F,16.5,0x00c000,,0.00e-0
1664702193,C;S;V;F,16.7,0x00c000,-35.4,0.00e-0
1664702194,C;S;V;F,16.7,0x00c000,-35.4,0.00e-0
1664702195,C;S;V;F,16.4,0x00c000,-35.5,0.00e-0
1664702196,C;S;V;F,16.4,0x00c000,-35.6,0.00e-0
1664702197,C;S;V;F,16.4,0x00c000,-35.6,0.00e-0
1664702198,C;S;V;F,16.3,0x00c000,-35.6,
1664702199,C;S;V;F,16.3,0x00c000,-35.7,0.00e-0
1664702200,,16.6,0x00c000,-35.4,0.00e-0
1664702201,C;S;V;F,17.0,0x00c000,-35.1,0.00e-0
1664702202,C;S;V;F,,0x00c000,-35.2,0.00e-0
1664702203,C;S;V;F,16.8,0x00c000,,0.00e-0
1664702204,C;S;V;F,16.9,0x00c000,-35.1,0.00e-0
1664702205,C;S;V;F,16.8,0x00c000,-35.1,0.00e-0
1664702206,C;S;V;F,16.6,0x00c000,-35.5,0.00e-0
1664702207,C;S;V;F,16.5,0x00c000,-35.6,0.00e-0
1664702208,C;S;V;F,16.4,0x00c000,-35.6,0.00e-0
1664702209,C;S;V;F,16.4,0x00c000,-35.8,0.00e-0
1664702210,C;S;V;F,16.4,0x00c000,-36.0,0.00e-0
1664702211,,16.2,0x00c000,-35.9,
1664702212,C;S;V;F,16.3,0x00c000,-35.9,0.00e-0
1664702213,C;S;V;F,16.2,0x00c000,-35.6,0.00e-0
1664702214,C;S;V;F,,0x00c000,-35.8,0.00e-0
1664702215,C;S;V;F,16.3,0x00c000,-35.8,0.00e-0
1664702216,C;S;V;F,16.2,0x00c000,,0.00e-0
1664702217,C;S;V;F,16.4,0x00c000,-35.8,0.00e-0
1664702218,C;S;V;F,16.2,0x00c000,-35.8,0.00e-0
1664702219,C;S;V;F,16.0,0x00c000,-36.0,0.00e-0
1664702220,C;S;V;F,15.9,0x00c000,-36.0,0.00e-0
1664702221,,16.0,0x00c000,-36.3,
1664702222,C;S;V;F,15.9,0x00c000,-36.0,0.00e-0
1664702223,C;S;V;F,15.9,0x00c000,-36.0,0.00e-0
1664702224,C;S;V;F,,0x00c000,-35.9,0.00e-0
1664702225,C;S;V;F,16.2,0x00c000,-35.8,0.00e-0
1664702226,C;S;V;F,16.3,0x00c000,-35.9,0.00e-0
1664702227,C;S;V;F,16.0,0x00c000,,0.00e-0
1664702228,,,0x00c000,-35.8,
1664702229,C;S;V;F,16.1,0x00c000,,0.00e-0
1664702230,C;S;V;F,16.1,0x00c000,-36.2,0.00e-0
1664702231,C;S;V;F,16.1,0x00c000,-36.0,0.00e-0
1664702232,C;S;V;F,16.1,0x00c000,-36.3,0.00e-0
1664702233,,15.9,0x00c000,-36.2,
1664702234,C;S;V;F,15.8,0x00c000,-36.4,0.00e-0
1664702235,C;S;V;F,15.6,0x00c000,-36.4,0.00e-0
1664702236,C;S;V;F,,0x00c000,-36.3,0.00e-0
1664702237,C;S;V;F,15.6,0x00c000,-36.7,0.00e-0
1664702238,C;S;V;F,15.4,0x00c000,,0.00e-0
1664702239,C;S;V;F,15.5,0x00c000,-36.5,0.00e-0
1664702240,C;S;V;F,15.5,0x00c000,-36.7,0.00e-0
1664702241,C;S;V;F,15.7,0x00c000,-36.7,0.00e-0
1664702242,C;S;V;F,15.6,0x00c000,-36.5,0.00e-0
1664702243,C;S;V;F,15.8,0x00c000,-36.3,0.00e-0
1664702244,,15.6,0x00c000,-36.4,
1664702245,C;S;V;F,15.9,0x00c000,-36.3,0.00e-0
1664702246,C;S;V;F,,,,0.00e-0
1664702249,,15.6,0x00c000,-36.5,
1664702250,C;S;V;F,,0x00c000,-36.8,0.00e-0
1664702251,C;S;V;F,15.3,0x00c000,-36.9,0.00e-0
1664702252,C;S;V;F,15.2,0x00c000,,0.00e-0
1664702253,C;S;V;F,15.2,0x00c000,-37.2,0.00e-0
1664702254,C;S;V;F,15.1,0x00c000,-37.1,0.00e-0
1664702255,C;S;V;F,14.9,0x00c000,-37.1,0.00e-0
1664702256,C;S;V;F,15.1,0x00c000,-37.5,0.00e-0
1664702257,C;S;V;F,14.9,0x00c000,-37.3,0.00e-0
1664702258,C;S;V;F,14.8,0x00c000,-37.3,0.00e-0
1664702259,C;S;V;F,14.4,0x00c000,-37.5,0.00e-0
1664702260,C;S;V;F,14.8,0x00c000,-37.3,
1664702261,,14.7,0x00c000,-37.6,0.00e-0
1664702262,C;S;V;F,14.6,0x00c000,-37.4,0.00e-0
1664702263,C;S;V;F,14.6,0x00c000,-37.2,0.00e-0
1664702264,C;S;V;F,14.8,0x00c000,-37.3,0.00e-0
1664702265,C;S;V;F,,0x00c000,-37.2,0.00e-0
1664702266,C;S;V;F,14.9,0x00c000,,0.00e-0
1664702267,C;S;V;F,14.8,0x00c000,-37.2,0.00e-0
1664702268,C;S;V;F,15.1,0x00c000,-37.1,0.00e-0
1664702269,C;S;V;F,14.9,0x00c000,-37.2,0.00e-0
1664702270,C;S;V;F,14.7,0x00c000,-37.2,0.00e-0
1664702271,C;S;V;F,14.8,0x00c000,-37.2,0.00e-0
1664702272,C;S;V;F,15.0,0x00c000,-37.2,
1664702273,,14.7,0x00c000,-37.6,0.00e-0
1664702274,C;S;V;F,14.7,0x00c000,-37.5,0.00e-0
1664702275,C;S;V;F,14.8,0x00c000,-37.2,0.00e-0
1664702276,C;S;V;F,,0x00c000,-37.2,0.00e-0
1664702277,C;S;V;F,14.6,0x00c000,-37.2,0.00e-0
1664702278,C;S;V;F,14.8,0x00c000,,0.00e-0
1664702279,C;S;V;F,14.7,0x00c000,-37.2,0.00e-0
1664702280,C;S;V;F,14.9,0x00c000,-36.9,0.00e-0
1664702281,C;S;V;F,15.2,0x00c000,-36.6,0.00e-0
1664702282,C;S;V;F,15.4,0x00c000,-36.7,0.00e-0
1664702283,C;S;V;F,15.3,0x00c000,-36.8,0.00e-0
1664702284,C;S;V;F,15.1,0x00c000,-36.9,
1664702285,,14.9,0x00c000,-36.8,0.00e-0
1664702286,C;S;V;F,15.3,0x00c000,-36.8,0.00e-0
1664702287,C;S;V;F,15.3,0x00c000,-36.5,0.00e-0
1664702288,C;S;V;F,,0x00c000,-36.6,0.00e-0
1664702289,C;S;V;F,15.3,0x00c000,-36.3,0.00e-0
1664702290,C;S;V;F,15.6,0x00c000,,0.00e-0
1664702292,,15.7,0x00c000,-36.3,
1664702293,C;S;V;F,15.6,0x00c000,-36.4,0.00e-0
1664702294,C;S;V;F,15.6,0x00c000,-36.3,0.00e-0
1664702295,C;S;V;F,,0x00c000,-36.0,0.00e-0
1664702296,C;S;V;F,15.8,0x00c000,,0.00e-0
1664702297,C;S;V;F,15.7,0x00c000,-36.1,0.00e-0
1664702298,C;S;V;F,15.2,0x00c000,-36.8,0.00e-0
1664702299,C;S;V;F,15.4,0x00c000,-36.4,0.00e-0
1664702300,C;S;V;F,15.6,0x00c000,-36.1,0.00e-0
1664702301,C;S;V;F,16.0,0x00c000,-36.0,0.00e-0
1664702302,C;S;V;F,16.1,0x00c000,-35.7,0.00e-0
1664702303,C;S;V;F,16.1,0x00c000,-35.7,
1664702304,,16.0,0x00c000,-35.5,0.00e-0
1664702305,C;S;V;F,16.1,0x00c000,-35.6,0.00e-0
1664702306,C;S;V;F,16.3,0x00c000,-35.6,0.00e-0
1664702307,C;S;V;F,,0x00c000,-35.5,0.00e-0
1664702308,C;S;V;F,16.3,0x00c000,-35.2,0.00e-0
1664702309,C;S;V;F,16.4,0x00c000,,0.00e-0
1664702310,C;S;V;F,16.3,0x00c000,-35.7,0.00e-0
1664702311,C;S;V;F,16.2,0x00c000,-35.6,0.00e-0
1664702312,C;S;V;F,16.1,0x00c000,-35.5,0.00e-0
1664702313,C;S;V;F,16.3,0x00c000,-35.6,0.00e-0
1664702314,C;S;V;F,16.0,0x00c000,-35.6,0.00e-0
1664702315,C;S;V;F,16.2,0x00c000,-35.6,0.00e-0
1664702316,C;S;V;F,16.1,0x00c000,-35.5,0.00e-0
1664702317,C;S;V;F,16.2,0x00c000,-35.4,0.00e-0
1664702318,C;S;V;F,16.0,0x00c000,-35.3,0.00e-0
1664702319,C;S;V;F,16.4,0x00c000,-34.9,0.00e-0
1664702320,,16.4,0x00c000,-34.8,
1664702321,C;S;V;F,16.9,0x00c000,-34.8,0.00e-0
1664702322,C;S;V;F,,0x00c000,-35.5,0.00e-0
1664702323,C;S;V;F,16.3,0x00c000,,0.00e-0
1664702324,C;S;V;F,16.5,0x00c000,-34.8,0.00e-0
1664702325,C;S;V;F,16.0,0x00c000,-35.7,0.00e-0
1664702326,C;S;V;F,16.0,0x00c000,-35.5,0.00e-0
1664702327,C;S;V;F,16.2,0x00c000,-35.7,0.00e-0
1664702328,C;S;V;F,16.4,0x00c000,-35.3,0.00e-0
1664702329,C;S;V;F,16.4,0x00c000,-35.8,0.00e-0
1664702330,C;S;V;F,15.8,0x00c000,-35.7,0.00e-0
1664702331,C;S;V;F,16.1,0x00c000,-35.7,0.00e-0
1664702332,C;S;V;F,15.7,0x00c000,-36.3,
1664702333,,15.6,0x00c000,-35.6,0.00e-0
1664702334,C;S;V;F,16.1,0x00c000,-35.2,0.00e-0
1664702335,C;S;V;F,16.4,0x00c000,-35.2,0.00e-0
1664702336,C;S;V;F,,0x00c000,-35.7,0.00e-0
1664702337,C;S;V;F,15.8,0x00c000,,0.00e-0
1664702338,C;S;V;F,16.4,0x00c000,-35.5,0.00e-0
1664702339,C;S;V;F,15.8,0x00c000,-36.0,0.00e-0
1664702340,C;S;V;F,15.6,0x00c000,-36.0,0.00e-0
1664702341,C;S;V;F,15.8,0x00c000,-35.9,0.00e-0